This is the latest recevied weather packets stored in our database for station/object K2NV. If no packets are shown the sender has not sent any weather packets the latest 1 day(s).
| Time | Temp. | Humidity | Pressure | Rain* | Wind** | Luminosity | Snow |
|---|---|---|---|---|---|---|---|
| 1778035158 | 9.44° C | 92% | 1007.6 hPa | 0.51 mm | - | - | - |
| 1778034856 | 9.44° C | 92% | 1008 hPa | 0.76 mm | - | - | - |
| 1778034557 | 9.44° C | 92% | 1008 hPa | 0.76 mm | - | - | - |
| 1778034256 | 9.44° C | 92% | 1007.9 hPa | 0.51 mm | - | - | - |
| 1778033957 | 9.44° C | 92% | 1007.8 hPa | 0.51 mm | - | - | - |
| 1778033658 | 9.44° C | 92% | 1007.8 hPa | 0.51 mm | - | - | - |
| 1778033356 | 9.44° C | 92% | 1007.9 hPa | 0.51 mm | - | - | - |
| 1778033059 | 9.44° C | 92% | 1007.8 hPa | 0.51 mm | - | - | - |
| 1778032456 | 9.44° C | 92% | 1007.7 hPa | 0.51 mm | - | - | - |
| 1778032156 | 9.44° C | 92% | 1007.7 hPa | 0.76 mm | - | - | - |
| 1778031857 | 9.44° C | 92% | 1007.9 hPa | 0.76 mm | - | - | - |
| 1778031558 | 9.44° C | 92% | 1007.9 hPa | 0.76 mm | - | - | - |
| 1778031257 | 9.44° C | 91% | 1008 hPa | 0.76 mm | - | - | - |
| 1778030958 | 9.44° C | 91% | 1008 hPa | 0.76 mm | - | - | - |
| 1778030657 | 9.44° C | 92% | 1008 hPa | 1.02 mm | - | - | - |
| 1778029756 | 9.44° C | 91% | 1007.6 hPa | 1.52 mm | - | - | - |
| 1778027957 | 9.44° C | 92% | 1007.5 hPa | 2.54 mm | - | - | - |
| 1778027657 | 9.44° C | 91% | 1007.5 hPa | 2.79 mm | - | - | - |
| 1778027358 | 9.44° C | 91% | 1007.7 hPa | 3.05 mm | - | - | - |
| 1778027057 | 9.44° C | 91% | 1007.7 hPa | 2.79 mm | - | - | - |
| 1778026755 | 9.44° C | 91% | 1007.7 hPa | 3.05 mm | - | - | - |
| 1778026456 | 9.44° C | 91% | 1007.5 hPa | 3.05 mm | - | - | - |
| 1778026155 | 9.44° C | 91% | 1007.4 hPa | 2.79 mm | - | - | - |
| 1778024955 | 9.44° C | 91% | 1007.3 hPa | 2.29 mm | - | - | - |
| 1778024656 | 9.44° C | 91% | 1007.2 hPa | 2.29 mm | - | - | - |
* Rain latest hour (hover to see other rain measurements)
** Current wind speed in m/s (hover to see current wind gust speed)